Regional Weather Roundup
Issued by NWS Albany, NY

Home | Current Version | Previous Version | Graphics & Text | Print | Product List | Glossary Off
Versions: 1 2 3 4 5 6 7 8 9 10 11 12 13 14 15 16 17 18 19 20 21 22 23 24 25 26 27 28

000
ASUS41 KALY 222210
RWRALY

NEW YORK STATE HOURLY WEATHER ROUNDUP
NATIONAL WEATHER SERVICE ALBANY NY
600 PM EDT SAT JUL 22 2017

NOTE: "FAIR" INDICATES FEW OR NO CLOUDS BELOW 12,000 FEET WITH NO
SIGNIFICANT WEATHER AND/OR NO OBSTRUCTIONS TO VISIBILITY.

NYZ032-033-038>043-046>054-057>066-NYZ062>081-082-084-222300-
EAST


CITY           SKY/WX    TMP DP  RH WIND       PRES   REMARKS
ALBANY         LGT RAIN  74  63  68 W3        29.81F
GLENS FALLS    MOSUNNY   75  67  76 S7        29.78F
POUGHKEEPSIE   CLOUDY    80  64  58 CALM      29.78F
NEWBURGH       PTSUNNY   82  63  51 CALM      29.81F
MONTGOMERY     CLOUDY    81  70  69 CALM      29.80S
ISLIP          CLOUDY    83  63  50 S7        29.78F
NEW YORK CITY  PTSUNNY   87  64  46 VRB5      29.76F
CENTRAL PARK   PTSUNNY   84  64  50 VRB5      29.81R
$$

NYZ005>009-017-018-044>046-055-056-222300-
CENTRAL


CITY           SKY/WX    TMP DP  RH WIND       PRES   REMARKS
FULTON         MOSUNNY   74  66  76 CALM      29.81F
SYRACUSE       CLOUDY    73  66  78 NE6       29.80F
ROME           CLOUDY    73  67  81 CALM      29.82F
ELMIRA         CLOUDY    78  68  71 NE7       29.79F
BINGHAMTON     CLOUDY    72  64  76 E7        29.84F
$$

NYZ026>034-041>043-087-222300-
NORTH


CITY           SKY/WX    TMP DP  RH WIND       PRES   REMARKS
WATERTOWN      CLOUDY    74  66  76 CALM      29.80F
FORT DRUM      NOT AVBL
OGDENSBURG     FAIR      79  62  55 NE6       29.81S
MASSENA        CLOUDY    78  59  51 CALM      29.82F
SARANAC LAKE   CLOUDY    73  61  65 CALM      29.84F
PLATTSBURGH    CLOUDY    74  57  55 NE8       29.80F
$$

NYZ001>004-010>016-019>021-085-222300-
WEST


CITY           SKY/WX    TMP DP  RH WIND       PRES   REMARKS
NIAGARA FALLS  CLOUDY    78  63  59 E5        29.78F
BUFFALO        CLOUDY    75  62  64 NE5       29.78F
DUNKIRK        CLOUDY    76  69  79 NE7       29.77F
JAMESTOWN      CLOUDY    73  64  73 NE6       29.81F
WELLSVILLE     CLOUDY    76  64  66 SE3       29.85F
ROCHESTER      CLOUDY    79  58  48 E7        29.79F
PENN YAN       CLOUDY    74  63  68 CALM      29.82F
$$

             KEY
       WCI = WIND CHILL INDEX
       VSB = VISIBILITY
       HX  = HEAT INDEX
$$




USA.gov is the U.S. government's official web portal to all federal, state and local government web resources and services.